Location: Casper
(42.8670°N, 106.3130°W)
Time: 22:35:35
(UTC-07:00)

Daily predictions for brighter satellites

Satellite Brightness Start Highest point End
(mag) Time Altitude Azimuth Time Altitude Azimuth Time Altitude Azimuth
Cosmos 1980 3.7 18:04:06 10° NNW 18:09:49 74° ENE 18:15:30 10° SSE
FALCON 9 R/B 4.1 18:05:50 10° WSW 18:11:38 53° SSE 18:32:35 10° E
Iridium 2 4.0 18:08:31 10° N 18:12:22 75° W 18:16:10 10° S
Cosmos 2285 Rocket 4.0 18:06:36 10° SSW 18:12:55 76° ESE 18:19:18 10° NNE
Cosmos 2056 Rocket 3.6 18:09:59 10° NNW 18:15:27 87° ENE 18:20:53 10° SSE
USA 267 4.4 18:12:35 10° ENE 18:18:01 29° NNE 18:23:28 10° NW
CENTAUR R/B 3.3 18:13:13 10° SSE 18:18:12 29° ESE 18:23:43 10° NE
Landsat 4 3.8 18:16:46 10° NNE 18:20:27 52° E 18:24:06 10° S
SPOT 3 Rocket 3.6 18:15:53 10° SSE 18:20:59 61° ENE 18:26:09 10° N
Cosmos 1452 Rocket 3.9 18:16:40 10° N 18:21:39 40° ENE 18:26:34 10° SE
Meteor 1-27 Rocket 4.4 18:17:16 10° NNW 18:23:05 67° W 18:28:57 10° S
MONITOR-E 4.2 18:21:47 10° S 18:24:48 83° WSW 18:27:51 10° NNW
FengYun 1-2 T 4.5 18:20:53 10° SE 18:26:05 46° ENE 18:31:19 10° N
Cosmos 1674 Rocket 3.8 18:23:26 10° N 18:27:39 46° ENE 18:31:48 10° SSE
ALOS 2.7 18:26:28 10° S 18:31:06 69° W 18:35:47 10° NNW
Cosmos 405 2.9 18:29:43 10° S 18:33:09 59° E 18:36:38 10° NNE
Iridium 4 Rocket 3.9 18:30:14 10° NNE 18:34:42 32° E 18:38:48 10° SE
Cosmos 1908 Rocket 4.2 18:31:50 10° SSE 18:35:49 33° E 18:39:50 10° NNE
Cosmos 158 Rocket 4.3 18:31:42 10° S 18:36:11 37° ESE 18:40:40 10° NE
Lacrosse 5 2.6 18:31:39 10° NW 18:36:36 54° SW 18:41:30 10° SSE
YAOGAN 1 4.1 18:32:55 10° S 18:37:00 41° W 18:41:06 10° NNW
Cosmos 44 3.6 18:32:25 10° NNW 18:37:19 53° NE 18:42:25 10° SE
Cosmos 2219 Rocket 4.0 18:34:54 10° NW 18:40:00 35° WSW 18:45:02 10° SSW
SJ-6B 3.6 18:37:37 10° SE 18:40:53 29° ENE 18:44:14 10° N
NOAA 12 4.4 18:36:32 10° S 18:41:49 72° WSW 18:47:10 10° NNW
Cosmos 1420 Rocket 4.2 18:38:07 10° N 18:43:16 50° ENE 18:48:25 10° SE
Cosmos 1733 Rocket 3.1 18:38:59 10° S 18:43:18 85° W 18:47:39 10° N
Okean 3 3.5 18:39:16 10° N 18:43:24 55° E 18:47:29 10° SSE
Cosmos 921 Rocket 4.1 18:40:15 10° N 18:44:07 27° ENE 18:46:59 15° ESE
SL-8 R/B 3.9 18:40:29 10° SW 18:45:09 56° SSE 18:48:35 18° ENE
ATLAS 3B R/B 3.8 18:39:00 10° WSW 18:45:51 45° NW 18:52:28 10° NNE
CZ-4C R/B 4.2 18:41:07 10° NNW 18:45:54 20° NNE 18:49:51 13° ENE
CZ-4 R/B 4.3 18:43:09 10° SW 18:46:16 21° W 18:49:23 10° NW
NOSS 3-2 (A) 4.0 18:41:17 10° SW 18:47:10 61° NW 18:53:45 10° NNE
Okean 1 3.9 18:49:38 10° N 18:53:19 34° ENE 18:56:57 10° SE
Cosmos 2227 Rocket 2.6 18:48:32 10° SW 18:54:09 66° WNW 18:59:48 10° NNE
Cosmos 2237 Rocket 3.0 18:48:56 10° NNW 18:54:24 53° WSW 18:59:50 10° S
H-2A R/B 2.9 18:53:03 10° S 18:56:58 77° WSW 19:00:53 10° NNW
Resurs 01 Rocket 2.7 18:56:47 22° ENE 18:57:24 23° ENE 19:00:52 10° NNE
SL-16 R/B 2.1 18:52:04 10° NNW 18:57:44 69° ENE 19:03:21 10° SSE
Meteor 1-14 Rocket 4.2 18:53:27 10° S 18:59:12 77° E 19:05:07 10° NNE
Cosmos 1975 Rocket 3.7 18:57:51 10° N 19:01:52 33° ENE 19:04:07 21° SE
Cosmos 1513 Rocket 4.4 18:59:22 10° N 19:05:46 69° E 19:11:58 10° SSE
USA 186 3.7 19:09:47 17° NNE 19:09:47 17° NNE 19:10:54 10° NNE
Cosmos 2297 Rocket 2.8 19:02:43 10° SW 19:08:17 59° WNW 19:13:54 10° NNE
Meteor 1-20 Rocket 4.2 19:06:07 10° S 19:11:48 81° E 19:17:37 10° NNE
CZ-2D R/B 3.3 19:08:23 10° SSE 19:12:11 57° ENE 19:16:02 10° N
Thor Agena Rocket 3.5 19:07:39 10° NNE 19:12:40 54° E 19:17:35 10° S
Cosmos 468 4.4 19:07:42 10° SSW 19:12:57 77° ESE 19:18:12 10° NNE
Cosmos 1812 3.7 19:11:16 10° NNW 19:15:01 48° W 19:18:45 10° SSW
Cosmos 1603 4.3 19:10:44 10° N 19:15:54 35° NE 19:17:18 30° E
ERS-2 2.8 19:12:58 10° S 19:16:36 57° W 19:20:15 10° NNW
Envisat 3.0 19:12:05 10° SSE 19:17:04 60° ENE 19:22:04 10° N
ARGOS Delta rocket 3.8 19:13:44 10° NNE 19:18:34 56° E 19:23:07 10° S
SeaSat 1 2.3 19:15:29 15° SE 19:19:34 74° ENE 19:24:31 10° NNW
Cosmos 1633 3.0 19:17:07 10° SSW 19:20:37 61° W 19:24:10 10° N
USA 32 3.9 19:15:31 10° S 19:20:43 75° E 19:25:58 10° N
HJ-1C 3.6 19:17:35 10° S 19:20:59 74° WSW 19:24:25 10° NNW
Meteor 1-18 Rocket 4.3 19:16:46 10° NNW 19:22:24 80° W 19:27:56 10° S
Tsikada Rocket 4.1 19:16:22 10° SSE 19:22:34 55° E 19:28:49 10° NNE
Cosmos 1269 Rocket 4.0 19:18:21 10° S 19:23:29 54° ESE 19:28:38 10° NNE
USA 215 3.2 19:21:44 19° NE 19:26:41 78° SE 19:33:13 10° SW
Cosmos 1378 Rocket 3.9 19:22:23 10° NNW 19:26:47 67° W 19:31:09 10° S
Cosmos 1110 Rocket 4.5 19:25:18 10° N 19:30:15 39° ENE 19:30:29 39° ENE
Sich 1 Rocket 3.6 19:25:48 10° S 19:30:19 84° W 19:34:50 10° N
Cosmos 1782 Rocket 3.4 19:28:52 10° S 19:33:18 80° E 19:37:44 10° N
Tiangong 2 2.8 19:31:00 10° W 19:33:44 26° SSW 19:33:57 26° SSW
Cosmos 1437 Rocket 2.7 19:34:19 10° S 19:38:22 88° ESE 19:42:29 10° N
Meteor 1-19 Rocket 4.0 19:33:47 10° N 19:39:18 67° ENE 19:42:08 29° SSE
H-2A R/B 4.4 19:43:15 10° NNE 19:43:15 10° NNE 19:43:23 10° NNE
Meteor 1-11 Rocket 4.5 19:36:26 10° SSE 19:43:45 33° NE 19:47:10 10° NNE
Cosmos 1939 Rocket 3.7 19:43:13 39° NNE 19:43:13 39° NNE 19:46:01 10° N
Cosmos 44 Rocket 3.9 19:38:39 10° NW 19:43:36 58° WSW 19:46:45 22° S
Meteor 2-4 Rocket 3.8 19:40:44 10° N 19:46:27 54° ENE 19:46:52 53° E
Cosmos 2227 4.1 19:49:00 10° SSW 19:54:41 69° ESE 19:55:38 58° ENE
ATLAS CENTAUR R/B 3.7 19:53:16 10° N 19:54:12 14° N 19:54:12 14° N
USA 267 3.4 19:58:59 50° ENE 20:00:13 58° NNE 20:06:37 10° NW
Cosmos 1331 Rocket 4.2 19:58:57 10° NNW 20:03:26 57° NNE 20:03:26 57° NNE
Spot 2 Rocket 3.4 20:07:24 82° NNW 20:07:24 82° NNW 20:12:16 10° NNW
CENTAUR R/B 3.1 20:02:21 10° SW 20:08:20 56° NW 20:13:40 17° NNE
Geosat 4.0 20:08:28 59° N 20:09:22 76° WNW 20:14:23 10° SW
BREEZE-M DEB (TANK) 4.5 20:09:33 10° WNW 20:10:16 19° WNW 20:10:16 19° WNW
Cosmos 1943 3.9 20:19:10 10° NNW 20:23:05 44° N 20:23:05 44° N
Cosmos 1634 Rocket 3.9 20:22:23 10° N 20:28:22 81° WNW 20:28:22 81° WNW
Resurs 01 Rocket 3.2 20:34:21 33° WNW 20:34:21 33° WNW 20:37:45 10° NNW
CZ-4C R/B 3.1 20:28:58 10° NNW 20:35:04 54° NNE 20:35:04 54° NNE
USA 215 4.2 21:09:05 40° NNW 21:09:23 41° NNW 21:15:23 10° W
